Location: McFarlands Corners
(41.4117°N, 81.3382°W)
Time: 04:31:08
(UTC+00:00)

A-11 Canister half - Pass Details

Date: 21 February 2026
Orbit: 1524 x 1683 km, 47.3° (Epoch: 14 March)

Event Time Altitude Azimuth Distance (km) Brightness Sun altitude
Rises 02:24:55 0° 295° (WNW) 4,679 12.5 -37.6°
Reaches altitude 10° 02:27:56 10° 296° (WNW) 3,693 11.7 -38.1°
Enters shadow 02:36:08 73° 283° (WNW) 1,592 9.0 -39.5°
